Regional Weather Roundup
Issued by NWS Northern Indiana

Home | Current Version | Previous Version | Text Only | Print | Product List | Glossary Off
Versions: 1 2 3 4 5 6 7 8 9 10 11 12 13 14 15 16 17 18 19 20 21 22 23 24 25 26 27 28 29 30 31 32 33 34 35 36 37 38 39 40 41 42 43 44 45 46 47 48 49 50

000
ASUS43 KIWX 230710
RWRIWX

KIWX WEATHER ROUNDUP
NATIONAL WEATHER SERVICE NORTHERN INDIANA
300 AM EDT TUE SEP 23 2014

NOTE: "FAIR" INDICATES FEW OR NO CLOUDS BELOW 12,000 FEET WITH NO
SIGNIFICANT WEATHER AND/OR OBSTRUCTIONS TO VISIBILITY.

* THESE STATIONS ARE NOT UNDER NWS QUALITY CONTROL. THEY ALSO MAY NOT
  REPORT WEATHER SUCH AS PRECIPITATION OR FOG.

INZ001>027-230800-
NORTHERN INDIANA

CITY           SKY/WX    TMP DP  RH WIND       PRES   REMARKS
GARY*          CLEAR     48  44  85 CALM      30.29S
VALPARAISO     CLEAR     47  45  93 CALM      30.30R
MICHIGAN CITY* CLEAR     43  43 100 CALM      30.30R
LAPORTE*       CLEAR     42  42 100 CALM      30.31R
KNOX*          CLEAR     43  41  93 CALM      30.29S
SOUTH BEND     CLEAR     48  43  82 CALM      30.30S
GOSHEN         CLEAR    N/A N/A N/A CALM      30.29S
MONTICELLO*    CLEAR     46  45  98 CALM      30.30S
LOGANSPORT*    CLEAR     43  41  93 CALM      30.31S
ROCHESTER*     CLEAR     46  46 100 CALM      30.30S
WARSAW*        CLEAR     43  41  93 CALM      30.30S FOG
ANGOLA*        CLEAR     43  43 100 CALM      30.29S
FORT WAYNE     CLEAR     44  42  93 CALM      30.31R
HUNTINGTON*    CLEAR     44  44  99 CALM      30.30S
PERU/GRISSOM   CLEAR     45  45 100 CALM      30.30S
MARION*        CLEAR     42  41  96 CALM      30.31S

$$
INZ028>050-230800-
CENTRAL INDIANA

CITY           SKY/WX    TMP DP  RH WIND       PRES   REMARKS
LAFAYETTE      CLEAR     45  45 100 CALM      30.31R
KOKOMO*        CLEAR     45  41  87 CALM      30.31S
MUNCIE*        CLEAR     43  41  93 CALM      30.30S
INDIANAPOLIS   CLEAR     50  44  80 NE7       30.29S

$$
MIZ043>046-050>051-056>058-064>065-071>073-077>080-230800-
SOUTHWEST LOWER MICHIGAN

CITY           SKY/WX    TMP DP  RH WIND       PRES   REMARKS
BATTLE CREEK   CLEAR     47  42  83 CALM      30.28S
BENTON HARBOR  CLEAR     43  42  97 CALM      30.28S
COLDWATER*     CLEAR     44  43  97 CALM      30.29S
HILLSDALE*     CLEAR     42  42 100 CALM      30.28S FOG
HOLLAND        CLEAR     49  44  83 S6        30.28R
GRAND RAPIDS   CLEAR     48  44  86 SE3       30.27S
KALAMAZOO      CLEAR     45  42  89 CALM      30.28S
STURGIS*       CLEAR     43  43 100 CALM      30.29S
THREE RIVERS*  FAIR      44  43  95 CALM      30.29F FOG

$$
OHZ001>008-015>018-024>025-230800-
NORTHWEST OHIO

CITY           SKY/WX    TMP DP  RH WIND       PRES   REMARKS
WAUSEON*       FAIR      43  43 100 CALM      30.29S
DEFIANCE       CLEAR    N/A N/A N/A CALM      30.29F
FINDLAY        CLEAR     44  41  89 CALM      30.28S
TOLEDO EXPRESS CLEAR     43  42  97 CALM      30.29S
TOLEDO METCALF CLEAR     49  42  77 CALM      30.30R
LIMA           CLEAR     44  40  85 CALM      30.29S

$$
AND FOR LAKE MICHIGAN COASTAL AND OPEN LAKE BUOY OBSERVATIONS

STATION/POSITION TEMP    WIND        PRES    VSBY  WAVE
                 AIR SEA DIR/SP/G                  HT/PER
                 (F)     (DEG/KT/KT) (MB)    (MI)  (FT/S)
CALUMET HARBOR    54     200/  5/  6 1024.0S
SAINT JOSEPH      52      CALM  /  5 1025.7S
SOUTH LAKE BUOY   61 62  220/ 14/ 16 1024.7S         2/ 4
4 MI NW BRIDGMAN  58 65  160/ 12/ 14   N/A           1/ 2
MICHIGAN CITY     57 63  180/ 10/ 12   N/A           1/ 2

$$
&&



USA.gov is the U.S. government's official web portal to all federal, state and local government web resources and services.